Date String (YYYY-MM-DD hh:mm:ss) UTC,Instrument flags,absolute air pressure of the measurement (hPa),sample flow rate (lpm),inlet stack bypass flow (lpm),air temperature of the measurement (°C),ambient temperature measured by the external sensor (°C),aerosol sample conditioner tube jacket temperature (°C),OPC LED temperature (°C),internal box temperature (°C),relative humidity of the measurement (%),span deviation,mass concentration of particles derived from Lorenz-Mie calculation of OPC scattering (μg/m³),mass concentration of particles derived from Lorenz-Mie calculation of OPC scattering (μg/m³),mass concentration of particles derived from Lorenz-Mie calculation of OPC scattering (μg/m³)
DateTimeUTC,F1_M11,P_M11,Q1_M11,Q2_M11,T1_M11,T2_M11,T3_M11,T4_M11,T5_M11,U1_M11,ZSPAN_M11,X2_M11,X0_M11,X1_M11
2023-09-16 08:00:00,SystemResetWarning,0836.8,5.01,000.00,027.7,026.2,000.0,036.1,029.3,21.0,0000.0,0003.88,0006.55,0003.55
2023-09-16 08:01:00,SystemResetWarning,0836.7,4.99,000.00,027.7,026.2,000.0,036.1,029.3,20.9,0000.0,0003.86,0006.38,0003.56
2023-09-16 08:02:00,SystemResetWarning,0836.6,4.99,000.00,027.7,026.2,000.0,036.1,029.3,20.7,0000.0,0003.85,0006.42,0003.55
2023-09-16 08:03:00,SystemResetWarning,0836.6,5.00,000.00,027.7,026.2,000.0,036.1,029.3,20.6,0000.0,0003.85,0006.50,0003.55
2023-09-16 08:04:00,SystemResetWarning,0836.6,5.01,000.00,027.7,026.2,000.0,036.1,029.3,20.4,0000.0,0003.86,0006.50,0003.55
2023-09-16 08:05:00,SystemResetWarning,0836.6,5.00,000.00,027.7,026.2,000.0,036.1,029.3,20.4,0000.0,0003.87,0006.41,0003.55
2023-09-16 08:06:00,SystemResetWarning,0836.6,4.99,000.00,027.7,026.2,000.0,036.1,029.3,20.4,0000.0,0003.87,0006.37,0003.55
2023-09-16 08:07:00,SystemResetWarning,0836.6,5.00,000.00,027.7,026.1,000.0,036.1,029.3,20.4,0000.0,0003.86,0006.51,0003.55
2023-09-16 08:08:00,SystemResetWarning,0836.6,5.00,000.00,027.7,026.1,000.0,036.1,029.2,20.4,0000.0,0003.85,0006.10,0003.55
2023-09-16 08:09:00,SystemResetWarning,0836.6,5.00,000.00,027.7,026.1,000.0,036.1,029.2,20.2,0000.0,0003.86,0006.11,0003.56
2023-09-16 08:10:00,SystemResetWarning,0836.5,5.01,000.00,027.7,026.1,000.0,036.1,029.2,20.2,0000.0,0003.87,0006.68,0003.56
2023-09-16 08:11:00,SystemResetWarning,0836.5,5.01,000.00,027.7,026.1,000.0,036.1,029.2,20.1,0000.0,0003.89,0006.83,0003.55
2023-09-16 08:12:00,SystemResetWarning,0836.5,5.00,000.00,027.7,026.1,000.0,036.1,029.2,20.1,0000.0,0003.88,0006.89,0003.55
2023-09-16 08:13:00,SystemResetWarning,0836.5,4.99,000.00,027.7,026.1,000.0,036.1,029.2,20.2,0000.0,0003.89,0007.50,0003.55
2023-09-16 08:14:00,SystemResetWarning,0836.4,4.99,000.00,027.6,026.0,000.0,036.1,029.2,20.2,0000.0,0003.92,0007.76,0003.56
2023-09-16 08:15:00,SystemResetWarning,0836.5,5.01,000.00,027.6,026.0,000.0,036.1,029.2,20.1,0000.0,0003.90,0007.62,0003.56
2023-09-16 08:16:00,SystemResetWarning,0836.5,5.00,000.00,027.6,026.0,000.0,036.1,029.1,20.2,0000.0,0003.88,0007.55,0003.56
2023-09-16 08:17:00,SystemResetWarning,0836.4,5.00,000.00,027.6,026.0,000.0,036.1,029.1,20.1,0000.0,0003.86,0007.51,0003.56
2023-09-16 08:18:00,SystemResetWarning,0836.5,5.00,000.00,027.6,026.0,000.0,036.1,029.1,20.2,0000.0,0003.85,0007.40,0003.56
2023-09-16 08:19:00,SystemResetWarning,0836.5,5.00,000.00,027.6,026.0,000.0,036.1,029.1,20.1,0000.0,0003.89,0007.51,0003.56
2023-09-16 08:20:00,SystemResetWarning,0836.5,5.01,000.00,027.6,026.0,000.0,036.1,029.1,19.9,0000.0,0003.88,0007.53,0003.56
2023-09-16 08:21:00,SystemResetWarning,0836.5,5.00,000.00,027.6,026.0,000.0,036.1,029.1,20.0,0000.0,0003.87,0007.40,0003.55
2023-09-16 08:22:00,SystemResetWarning,0836.4,5.01,000.00,027.6,026.0,000.0,036.1,029.1,20.0,0000.0,0003.89,0007.45,0003.55
2023-09-16 08:23:00,SystemResetWarning,0836.4,5.00,000.00,027.6,026.0,000.0,036.1,029.1,20.2,0000.0,0003.91,0007.42,0003.55
2023-09-16 08:24:00,SystemResetWarning,0836.4,4.99,000.00,027.6,026.0,000.0,036.1,029.1,20.2,0000.0,0003.92,0006.85,0003.55
2023-09-16 08:25:00,SystemResetWarning,0836.3,5.00,000.00,027.6,026.0,000.0,036.1,029.1,20.1,0000.0,0003.91,0006.34,0003.53
2023-09-16 08:26:00,SystemResetWarning,0836.3,4.99,000.00,027.6,026.0,000.0,036.1,029.1,20.0,0000.0,0003.91,0006.41,0003.52
2023-09-16 08:27:00,SystemResetWarning,0836.3,4.99,000.00,027.6,026.0,000.0,036.1,029.1,20.3,0000.0,0003.91,0006.50,0003.51
2023-09-16 08:28:00,SystemResetWarning,0836.3,5.01,000.00,027.5,026.0,000.0,036.1,029.0,20.3,0000.0,0003.91,0006.47,0003.51
2023-09-16 08:29:00,SystemResetWarning,0836.2,5.02,000.00,027.5,026.0,000.0,036.1,029.0,20.3,0000.0,0003.93,0006.55,0003.52
2023-09-16 08:30:00,SystemResetWarning,0836.2,5.00,000.00,027.5,025.9,000.0,036.0,029.1,20.4,0000.0,0003.93,0006.59,0003.52
2023-09-16 08:31:00,SystemResetWarning,0836.2,4.99,000.00,027.5,025.9,000.0,036.0,029.1,20.2,0000.0,0003.94,0006.61,0003.53
2023-09-16 08:32:00,SystemResetWarning,0836.2,4.99,000.00,027.5,025.9,000.0,036.0,029.1,20.1,0000.0,0003.93,0006.38,0003.53
2023-09-16 08:33:00,SystemResetWarning,0836.2,4.99,000.00,027.5,025.9,000.0,036.0,029.1,20.0,0000.0,0003.90,0006.07,0003.53
2023-09-16 08:34:00,SystemResetWarning,0836.2,5.00,000.00,027.5,025.9,000.0,036.0,029.1,19.9,0000.0,0003.91,0006.14,0003.53
2023-09-16 08:35:00,SystemResetWarning,0836.2,5.00,000.00,027.5,025.9,000.0,036.0,029.1,20.0,0000.0,0003.92,0006.11,0003.54
2023-09-16 08:36:00,SystemResetWarning,0836.2,5.01,000.00,027.5,025.9,000.0,036.0,029.0,19.9,0000.0,0003.94,0006.16,0003.55
2023-09-16 08:37:00,SystemResetWarning,0836.2,5.01,000.00,027.5,025.9,000.0,036.0,029.1,19.8,0000.0,0003.94,0006.19,0003.55
2023-09-16 08:38:00,SystemResetWarning,0836.2,4.99,000.00,027.5,025.9,000.0,036.0,029.1,20.1,0000.0,0003.95,0006.15,0003.56
2023-09-16 08:39:00,SystemResetWarning,0836.2,4.99,000.00,027.5,025.9,000.0,036.0,029.0,20.0,0000.0,0003.99,0006.30,0003.57
2023-09-16 08:40:00,SystemResetWarning,0836.2,5.00,000.00,027.5,025.9,000.0,036.0,029.0,20.1,0000.0,0003.97,0006.23,0003.55
2023-09-16 08:41:00,SystemResetWarning,0836.2,5.02,000.00,027.5,025.9,000.0,036.0,029.0,20.2,0000.0,0003.95,0006.26,0003.54
2023-09-16 08:42:00,SystemResetWarning,0836.2,4.99,000.00,027.5,025.9,000.0,036.0,029.1,20.2,0000.0,0003.97,0006.55,0003.54
2023-09-16 08:43:00,SystemResetWarning,0836.2,4.99,000.00,027.5,025.9,000.0,036.0,029.0,20.1,0000.0,0003.97,0006.55,0003.54
2023-09-16 08:44:00,SystemResetWarning,0836.2,4.99,000.00,027.5,025.9,000.0,036.0,029.1,20.1,0000.0,0003.95,0006.51,0003.53
2023-09-16 08:45:00,SystemResetWarning,0836.2,5.00,000.00,027.5,025.9,000.0,036.0,029.1,20.0,0000.0,0003.96,0006.56,0003.54
2023-09-16 08:46:00,SystemResetWarning,0836.2,5.00,000.00,027.5,025.9,000.0,036.0,029.0,19.9,0000.0,0003.95,0006.62,0003.53
2023-09-16 08:47:00,SystemResetWarning,0836.1,5.01,000.00,027.5,025.9,000.0,036.0,029.0,19.7,0000.0,0003.93,0006.61,0003.52
2023-09-16 08:48:00,SystemResetWarning,0836.1,5.00,000.00,027.5,025.9,000.0,036.0,029.0,19.7,0000.0,0003.92,0006.65,0003.52
2023-09-16 08:49:00,SystemResetWarning,0836.1,5.00,000.00,027.5,025.9,000.0,036.0,029.0,19.7,0000.0,0003.93,0007.38,0003.53
2023-09-16 08:50:00,SystemResetWarning,0836.1,5.01,000.00,027.5,025.9,000.0,036.0,029.0,19.8,0000.0,0003.91,0007.36,0003.52
2023-09-16 08:51:00,SystemResetWarning,0836.1,4.99,000.00,027.5,025.9,000.0,036.0,029.0,19.8,0000.0,0003.91,0007.47,0003.53
2023-09-16 08:52:00,SystemResetWarning,0836.1,5.00,000.00,027.5,025.9,000.0,035.9,029.0,19.7,0000.0,0003.94,0007.76,0003.54
2023-09-16 08:53:00,SystemResetWarning,0836.1,4.99,000.00,027.4,025.9,000.0,035.9,029.0,19.8,0000.0,0003.93,0007.62,0003.55
2023-09-16 08:54:00,SystemResetWarning,0836.1,5.00,000.00,027.4,025.9,000.0,035.9,029.0,19.9,0000.0,0003.91,0007.60,0003.54
2023-09-16 08:55:00,SystemResetWarning,0836.1,5.00,000.00,027.4,025.9,000.0,035.9,029.0,19.6,0000.0,0003.94,0007.72,0003.55
2023-09-16 08:56:00,SystemResetWarning,0836.1,5.00,000.00,027.4,025.9,000.0,035.9,029.0,19.6,0000.0,0003.94,0007.74,0003.54
2023-09-16 08:57:00,SystemResetWarning,0836.1,5.00,000.00,027.4,025.9,000.0,035.9,029.0,19.6,0000.0,0003.91,0007.62,0003.54
2023-09-16 08:58:00,SystemResetWarning,0836.1,5.01,000.00,027.4,025.9,000.0,035.9,029.0,19.7,0000.0,0003.88,0007.53,0003.54
2023-09-16 08:59:00,SystemResetWarning,0836.1,4.98,000.00,027.4,025.8,000.0,035.9,029.0,19.8,0000.0,0003.89,0007.52,0003.54
